NWS205 UUEE-ULLI

Flight info

Callsign NWS205
Flight time N/A
Altitude 36000
Route TOKNU3H TOKNU L4 NUDKO T561 ODATI T875 GENPA GENPA1W
Aircraft A321/M-SDFGHIRWY/B1L

Departure

Time 2026-05-07 17:13
Airport Sheremetyevo International Airport (UUEE)

Arrival

Time N/A
Airport Pulkovo Airport (ULLI)
Time Latitude Longitude Altitude Speed Heading
2026-05-07 16:42 55.97838 37.41625 639 ft 0 kts 75°
2026-05-07 17:01 55.97835 37.41605 644 ft 4 kts 77°
2026-05-07 17:01 55.97830 37.41558 641 ft 4 kts 89°
2026-05-07 17:01 55.97834 37.41515 649 ft 4 kts 132°
2026-05-07 17:01 55.97843 37.41503 644 ft 0 kts 165°
2026-05-07 17:07 55.97842 37.41503 644 ft 1 kts 165°
2026-05-07 17:07 55.97818 37.41515 650 ft 6 kts 165°
2026-05-07 17:07 55.97774 37.41535 639 ft 7 kts 165°
2026-05-07 17:07 55.97724 37.41560 643 ft 8 kts 165°
2026-05-07 17:08 55.97666 37.41588 642 ft 9 kts 165°
2026-05-07 17:08 55.97615 37.41629 639 ft 8 kts 127°
2026-05-07 17:08 55.97616 37.41733 640 ft 9 kts 75°
2026-05-07 17:08 55.97634 37.41848 647 ft 10 kts 75°
2026-05-07 17:09 55.97653 37.41976 641 ft 11 kts 75°
2026-05-07 17:09 55.97675 37.42126 644 ft 14 kts 75°
2026-05-07 17:09 55.97702 37.42305 639 ft 15 kts 75°
2026-05-07 17:09 55.97731 37.42494 641 ft 16 kts 75°
2026-05-07 17:10 55.97754 37.42649 642 ft 11 kts 75°
2026-05-07 17:10 55.97767 37.42749 642 ft 7 kts 89°
2026-05-07 17:10 55.97733 37.42795 645 ft 0 kts 164°
2026-05-07 17:11 55.97725 37.42799 642 ft 6 kts 164°
2026-05-07 17:11 55.97667 37.42827 638 ft 10 kts 165°
2026-05-07 17:12 55.97603 37.42807 643 ft 10 kts 237°
2026-05-07 17:12 55.97585 37.42703 643 ft 8 kts 255°
2026-05-07 17:12 55.97545 37.42429 647 ft 55 kts 255°
2026-05-07 17:12 55.97384 37.41355 644 ft 122 kts 255°
2026-05-07 17:13 55.97117 37.39577 693 ft 167 kts 257°
2026-05-07 17:13 55.96820 37.37622 1354 ft 165 kts 255°
2026-05-07 17:13 55.96513 37.35661 2055 ft 163 kts 255°
2026-05-07 17:13 55.96199 37.33689 2613 ft 172 kts 255°
2026-05-07 17:14 55.95855 37.31526 2830 ft 191 kts 255°
2026-05-07 17:14 55.95475 37.29132 2989 ft 208 kts 254°
2026-05-07 17:14 55.95063 37.26526 3097 ft 231 kts 255°
2026-05-07 17:14 55.94608 37.23642 3491 ft 247 kts 255°
2026-05-07 17:15 55.94142 37.20679 4262 ft 248 kts 254°
2026-05-07 17:15 55.93674 37.17716 5082 ft 248 kts 254°
2026-05-07 17:15 55.93203 37.14760 5905 ft 247 kts 254°
2026-05-07 17:15 55.92734 37.11809 6678 ft 247 kts 254°
2026-05-07 17:16 55.92266 37.08848 7405 ft 249 kts 253°
2026-05-07 17:16 55.91800 37.05862 8124 ft 251 kts 256°
2026-05-07 17:16 55.91709 37.02739 8811 ft 258 kts 276°
2026-05-07 17:16 55.92345 36.99698 9494 ft 270 kts 297°
2026-05-07 17:17 55.93685 36.97219 9936 ft 286 kts 316°
2026-05-07 17:17 55.95320 36.95176 10005 ft 287 kts 317°
2026-05-07 17:17 55.96970 36.93161 9995 ft 287 kts 317°
2026-05-07 17:17 55.98633 36.91153 10226 ft 291 kts 320°
2026-05-07 17:18 56.00491 36.89532 10762 ft 310 kts 333°
2026-05-07 17:18 56.02586 36.88255 11127 ft 323 kts 334°
2026-05-07 17:18 56.04739 36.86980 11742 ft 328 kts 335°
2026-05-07 17:18 56.06880 36.85694 12401 ft 329 kts 332°
2026-05-07 17:19 56.08900 36.83861 13057 ft 323 kts 320°
2026-05-07 17:19 56.10641 36.81372 13711 ft 319 kts 310°
2026-05-07 17:19 56.12270 36.78634 14306 ft 322 kts 311°
2026-05-07 17:19 56.13913 36.75882 14892 ft 325 kts 311°
2026-05-07 17:20 56.15570 36.73106 15468 ft 327 kts 311°
2026-05-07 17:20 56.17239 36.70306 16063 ft 330 kts 311°
2026-05-07 17:20 56.18923 36.67482 16642 ft 333 kts 311°
2026-05-07 17:20 56.20621 36.64635 17232 ft 336 kts 311°
2026-05-07 17:21 56.22335 36.61760 17793 ft 339 kts 311°
2026-05-07 17:21 56.24095 36.58794 17935 ft 355 kts 311°
2026-05-07 17:21 56.25926 36.55690 18169 ft 366 kts 311°
2026-05-07 17:21 56.27793 36.52528 18582 ft 371 kts 311°
2026-05-07 17:22 56.29682 36.49327 19046 ft 374 kts 311°
2026-05-07 17:22 56.31586 36.46106 19557 ft 377 kts 312°
2026-05-07 17:22 56.33502 36.42865 20052 ft 379 kts 312°
2026-05-07 17:22 56.35422 36.39589 20568 ft 381 kts 310°
2026-05-07 17:23 56.37119 36.35945 21066 ft 379 kts 301°
2026-05-07 17:23 56.38638 36.32051 21565 ft 381 kts 301°
2026-05-07 17:23 56.40173 36.28128 22049 ft 384 kts 301°
2026-05-07 17:23 56.41720 36.24186 22519 ft 386 kts 302°
2026-05-07 17:24 56.43281 36.20210 22971 ft 389 kts 302°
2026-05-07 17:24 56.44850 36.16212 23424 ft 391 kts 302°
2026-05-07 17:24 56.46426 36.12188 23801 ft 394 kts 302°
2026-05-07 17:24 56.48010 36.08129 24170 ft 396 kts 302°
2026-05-07 17:25 56.49597 36.04052 24547 ft 398 kts 302°
2026-05-07 17:25 56.51171 36.00003 24907 ft 399 kts 302°
2026-05-07 17:25 56.52772 35.95878 25277 ft 401 kts 302°
2026-05-07 17:25 56.54381 35.91724 25637 ft 403 kts 302°
2026-05-07 17:26 56.55992 35.87554 25991 ft 405 kts 302°
2026-05-07 17:26 56.57611 35.83354 26376 ft 407 kts 301°
2026-05-07 17:26 56.59236 35.79134 26748 ft 408 kts 301°
2026-05-07 17:26 56.60863 35.74899 27112 ft 410 kts 301°
2026-05-07 17:27 56.62497 35.70632 27466 ft 412 kts 301°
2026-05-07 17:27 56.64132 35.66352 27811 ft 414 kts 301°
2026-05-07 17:27 56.65774 35.62042 28148 ft 416 kts 301°
2026-05-07 17:27 56.67423 35.57710 28478 ft 418 kts 301°
2026-05-07 17:28 56.69077 35.53352 28802 ft 419 kts 301°
2026-05-07 17:28 56.70736 35.48978 29118 ft 421 kts 301°
2026-05-07 17:28 56.72403 35.44576 29436 ft 423 kts 301°
2026-05-07 17:28 56.74075 35.40150 29776 ft 425 kts 301°
2026-05-07 17:29 56.75747 35.35715 30142 ft 425 kts 300°
2026-05-07 17:29 56.77421 35.31272 30470 ft 425 kts 300°
2026-05-07 17:29 56.79092 35.26839 30863 ft 423 kts 300°
2026-05-07 17:29 56.80750 35.22432 31296 ft 420 kts 300°
2026-05-07 17:30 56.82372 35.18095 31712 ft 418 kts 300°
2026-05-07 17:30 56.84003 35.13722 32131 ft 416 kts 300°
2026-05-07 17:30 56.85627 35.09368 32538 ft 414 kts 300°
2026-05-07 17:30 56.87240 35.05033 32946 ft 412 kts 300°
2026-05-07 17:31 56.88844 35.00719 33346 ft 410 kts 300°
2026-05-07 17:31 56.90572 34.96569 33730 ft 412 kts 307°
2026-05-07 17:31 56.92650 34.92932 34108 ft 416 kts 315°
2026-05-07 17:31 56.95039 34.89876 34390 ft 420 kts 321°
2026-05-07 17:32 56.97494 34.86969 34671 ft 421 kts 321°
2026-05-07 17:32 56.99952 34.84052 34913 ft 421 kts 321°
2026-05-07 17:32 57.02411 34.81122 35163 ft 421 kts 321°
2026-05-07 17:32 57.04067 34.79142 35324 ft 421 kts 321°
2026-05-07 17:33 57.07322 34.75239 35636 ft 422 kts 321°
2026-05-07 17:33 57.09775 34.72281 35842 ft 423 kts 321°
2026-05-07 17:33 57.14693 34.66324 35923 ft 423 kts 321°
2026-05-07 17:34 57.19598 34.60367 35928 ft 422 kts 320°
2026-05-07 17:34 57.24502 34.54418 35934 ft 422 kts 320°
2026-05-07 17:35 57.29401 34.48464 35936 ft 422 kts 320°
2026-05-07 17:35 57.34299 34.42495 35947 ft 422 kts 320°
2026-05-07 17:36 57.39194 34.36481 35953 ft 422 kts 320°
2026-05-07 17:36 57.44088 34.30444 35995 ft 422 kts 320°
2026-05-07 17:37 57.48988 34.24405 35987 ft 423 kts 320°
2026-05-07 17:37 57.53880 34.18354 35984 ft 422 kts 319°
2026-05-07 17:38 57.58762 34.12300 35973 ft 421 kts 319°
2026-05-07 17:38 57.63635 34.06220 35975 ft 422 kts 319°
2026-05-07 17:39 57.68511 34.00128 35984 ft 422 kts 319°
2026-05-07 17:39 57.73389 33.94013 35996 ft 422 kts 319°
2026-05-07 17:40 57.78262 33.87869 35992 ft 422 kts 319°
2026-05-07 17:40 57.83134 33.81710 35996 ft 422 kts 319°
2026-05-07 17:41 57.87983 33.75495 35996 ft 421 kts 317°
2026-05-07 17:41 57.92581 33.68767 35995 ft 418 kts 313°
2026-05-07 17:42 57.96999 33.61795 36021 ft 417 kts 313°
2026-05-07 17:42 58.01474 33.54799 36011 ft 418 kts 313°
2026-05-07 17:43 58.06000 33.47885 36053 ft 419 kts 314°
2026-05-07 17:43 58.10526 33.40993 36006 ft 417 kts 314°
2026-05-07 17:44 58.15029 33.34070 36007 ft 417 kts 313°
2026-05-07 17:44 58.19523 33.27114 36004 ft 417 kts 313°
2026-05-07 17:45 58.24025 33.20148 36025 ft 418 kts 313°
2026-05-07 17:45 58.28525 33.13152 36023 ft 418 kts 313°
2026-05-07 17:46 58.32262 33.07328 36025 ft 418 kts 313°
2026-05-07 17:46 58.36762 33.00294 36025 ft 418 kts 313°
2026-05-07 17:47 58.41248 32.93234 36025 ft 418 kts 313°
2026-05-07 17:47 58.45729 32.86161 36070 ft 418 kts 313°
2026-05-07 17:48 58.50229 32.79075 36032 ft 419 kts 313°
2026-05-07 17:48 58.54717 32.71963 36035 ft 419 kts 313°
2026-05-07 17:49 58.59207 32.64814 36040 ft 420 kts 312°
2026-05-07 17:49 58.63696 32.57639 36040 ft 420 kts 312°
2026-05-07 17:50 58.68178 32.50460 35991 ft 419 kts 312°
2026-05-07 17:50 58.70413 32.46869 35482 ft 418 kts 312°
2026-05-07 17:50 58.72632 32.43299 35095 ft 414 kts 311°
2026-05-07 17:51 58.74830 32.39766 34698 ft 410 kts 311°